TimeEDT,TemperatureF,Dew PointF,Humidity,Sea Level PressureIn,VisibilityMPH,Wind Direction,Wind SpeedMPH,Gust SpeedMPH,PrecipitationIn,Events,Conditions,WindDirDegrees,DateUTC
1:52 AM,37.9,32.0,79,30.27,10.0,SW,3.5,-,0.00,Rain,Light Rain,220,2012-10-14 05:52:00
2:22 AM,35.6,33.8,93,30.22,9.0,Calm,Calm,-,0.00,Rain,Light Rain,0,2012-10-14 06:22:00
2:52 AM,35.1,32.0,89,30.22,4.0,ESE,3.5,-,0.02,Snow,Light Snow,120,2012-10-14 06:52:00
3:08 AM,33.8,33.8,100,30.18,4.0,Calm,Calm,-,0.01,Snow,Light Snow,0,2012-10-14 07:08:00
3:52 AM,35.1,32.0,89,30.17,9.0,Calm,Calm,-,0.02,,Overcast,0,2012-10-14 07:52:00
4:52 AM,35.1,33.1,92,30.14,10.0,Calm,Calm,-,0.01,Rain,Light Rain,0,2012-10-14 08:52:00
5:52 AM,36.0,34.0,93,30.12,9.0,Calm,Calm,-,0.00,Rain,Light Rain,0,2012-10-14 09:52:00
6:00 AM,35.6,33.8,93,30.09,6.0,Calm,Calm,-,0.00,Rain,Light Rain,0,2012-10-14 10:00:00
6:52 AM,36.0,34.0,93,30.12,4.0,Calm,Calm,-,0.02,Rain,Light Rain,0,2012-10-14 10:52:00
7:33 AM,35.6,33.8,93,30.07,6.0,Calm,Calm,-,0.01,,Overcast,0,2012-10-14 11:33:00
7:52 AM,36.0,34.0,93,30.11,7.0,North,5.8,-,0.01,,Overcast,350,2012-10-14 11:52:00
8:52 AM,37.0,35.1,93,30.11,10.0,Calm,Calm,-,0.00,,Overcast,0,2012-10-14 12:52:00
9:34 AM,37.4,35.6,93,30.06,10.0,Calm,Calm,-,N/A,,Overcast,0,2012-10-14 13:34:00
9:52 AM,37.0,35.1,93,30.10,10.0,Calm,Calm,-,N/A,,Overcast,0,2012-10-14 13:52:00
10:52 AM,39.0,36.0,89,30.09,10.0,North,5.8,-,N/A,,Overcast,350,2012-10-14 14:52:00
11:03 AM,39.2,35.6,87,30.05,10.0,North,4.6,-,N/A,,Overcast,360,2012-10-14 15:03:00
11:52 AM,39.9,37.0,89,30.09,10.0,North,3.5,-,N/A,,Overcast,360,2012-10-14 15:52:00
12:03 PM,39.2,37.4,93,30.05,10.0,Calm,Calm,-,N/A,,Overcast,0,2012-10-14 16:03:00
12:22 PM,41.0,37.4,87,30.04,10.0,Calm,Calm,-,N/A,,Overcast,0,2012-10-14 16:22:00
12:40 PM,41.0,37.4,87,30.03,10.0,Calm,Calm,-,N/A,,Overcast,0,2012-10-14 16:40:00
12:52 PM,41.0,37.9,89,30.06,10.0,Calm,Calm,-,N/A,,Overcast,0,2012-10-14 16:52:00
1:42 PM,42.8,39.2,87,30.02,10.0,Calm,Calm,-,N/A,,Overcast,0,2012-10-14 17:42:00
1:52 PM,43.0,39.0,86,30.05,10.0,Calm,Calm,-,N/A,,Overcast,0,2012-10-14 17:52:00
2:42 PM,44.6,39.2,81,29.98,10.0,Calm,Calm,-,N/A,,Overcast,0,2012-10-14 18:42:00
2:52 PM,45.0,39.9,82,30.02,10.0,Calm,Calm,-,N/A,,Overcast,0,2012-10-14 18:52:00
4:14 PM,44.6,41.0,87,29.97,10.0,Calm,Calm,-,0.00,Rain,Light Rain,0,2012-10-14 20:14:00
4:52 PM,45.0,42.1,90,30.00,10.0,Calm,Calm,-,0.00,,Overcast,0,2012-10-14 20:52:00
5:13 PM,44.6,42.8,93,29.96,10.0,Calm,Calm,-,N/A,,Overcast,0,2012-10-14 21:13:00
5:44 PM,44.6,42.8,93,29.97,10.0,NNW,3.5,-,N/A,,Overcast,340,2012-10-14 21:44:00
5:52 PM,45.0,42.1,90,30.00,10.0,Calm,Calm,-,N/A,,Overcast,0,2012-10-14 21:52:00
6:52 PM,45.0,42.1,90,29.99,10.0,Calm,Calm,-,N/A,,Overcast,0,2012-10-14 22:52:00
7:52 PM,45.0,43.0,93,29.98,10.0,Calm,Calm,-,N/A,,Overcast,0,2012-10-14 23:52:00
8:52 PM,46.0,43.0,89,29.96,10.0,Calm,Calm,-,N/A,,Overcast,0,2012-10-15 00:52:00
9:33 PM,44.6,42.8,93,29.91,10.0,North,3.5,-,N/A,,Mostly Cloudy,350,2012-10-15 01:33:00
9:52 PM,45.0,43.0,93,29.94,10.0,Calm,Calm,-,N/A,,Scattered Clouds,0,2012-10-15 01:52:00
10:52 PM,44.1,42.1,93,29.92,10.0,Calm,Calm,-,N/A,,Partly Cloudy,0,2012-10-15 02:52:00
11:07 PM,42.8,41.0,93,29.89,10.0,Calm,Calm,-,N/A,,Mostly Cloudy,0,2012-10-15 03:07:00
11:52 PM,44.1,42.1,93,29.90,10.0,Calm,Calm,-,N/A,,Overcast,0,2012-10-15 03:52:00